Location: Ganges
(40.9062°N, 82.5613°W)
Time: 14:14:01
(UTC+00:00)

Daily predictions for brighter satellites

Satellite Brightness Start Highest point End
(mag) Time Altitude Azimuth Time Altitude Azimuth Time Altitude Azimuth
Alouette 2 Rocket 3.2 12:01:39 10° N 12:05:24 85° E 12:08:59 10° SSE
Cosmos 2297 Rocket 4.1 12:01:18 10° N 12:05:54 25° NE 12:10:27 10° ESE
BREEZE M DEB (TANK) 3.8 12:03:54 10° NW 12:06:09 18° N 12:07:46 10° NE
Cosmos 2228 Rocket 3.5 12:02:29 10° N 12:06:59 71° E 12:11:30 10° SSE
Cosmos 2369 Rocket 3.5 12:04:51 10° W 12:08:33 18° NW 12:12:15 10° N
Cosmos 1408 Rocket 4.3 12:05:11 10° SW 12:08:56 29° WNW 12:12:44 10° NNW
FengYun 1-2 T 4.3 12:07:11 10° N 12:12:36 61° WNW 12:17:58 10° SSW
USA 267 3.6 22:22:07 10° NE 22:28:35 66° NW 22:35:03 10° WSW
Cosmos 1340 Rocket 2.8 22:30:18 10° N 22:34:21 65° E 22:38:23 10° SSE
Cosmos 1606 4.1 22:31:06 10° SSW 22:34:39 41° WNW 22:38:15 10° N
CZ-2D R/B 4.4 22:33:12 10° ESE 22:36:15 23° ENE 22:39:18 10° NNE
NOAA 12 4.1 22:33:26 10° SSE 22:38:46 85° ENE 22:44:07 10° NNW
Cosmos 2026 Rocket 4.4 22:33:43 10° N 22:39:26 39° ENE 22:45:04 10° SE
SJ 16-02 3.6 22:36:36 10° NW 22:40:26 30° W 22:44:16 10° SSW
COSMOS 2406 3.4 22:36:16 10° S 22:41:53 59° ESE 22:47:31 10° NNE
USA 229 DEB 4.0 22:36:07 10° NNW 22:43:26 62° NE 22:51:10 10° SE
USA 229 4.0 22:36:13 10° NNW 22:43:31 61° NE 22:51:15 10° SE
COSMOS 2455 3.2 22:41:10 10° S 22:46:54 49° ESE 22:52:41 10° NE
Cosmos 1833 Rocket 2.7 22:41:40 10° SSW 22:47:17 85° ESE 22:52:56 10° NNE
ARGOS 4.2 22:43:13 10° ESE 22:47:18 23° ENE 22:51:25 10° NNE
CZ-4B R/B 3.4 22:45:29 10° S 22:49:35 65° W 22:53:29 10° NNW
Cosmos 1500 4.1 22:46:49 10° NNE 22:50:02 27° ENE 22:53:14 10° SE
ATLAS CENTAUR R/B 3.5 22:37:56 10° SW 22:50:04 76° NW 22:54:48 10° NE
Cosmos 1500 Rocket 3.6 22:49:19 10° N 22:53:47 90° W 22:58:11 10° S
Cosmos 1933 3.3 22:53:58 10° S 22:58:01 82° E 23:02:04 10° N
PAYLOAD B 4.4 22:53:48 10° SE 22:59:12 51° ENE 23:04:37 10° N
USA 234 3.3 22:53:56 10° ESE 23:00:24 69° NE 23:06:54 10° NW
SMAP 3.1 22:55:59 10° SSE 23:00:38 90° WNW 23:05:19 10° NNW
Cosmos 540 Rocket 3.4 22:56:18 10° SSW 23:01:23 78° ESE 23:06:31 10° NNE
PSLV R/B 3.7 22:58:41 10° SSE 23:02:16 52° ENE 23:05:53 10° N
CZ-4B R/B 3.6 23:00:14 10° SE 23:05:14 39° ENE 23:10:10 10° N
Sich 1 3.1 23:01:08 10° N 23:05:21 53° E 23:09:34 10° SSE
Cosmos 1805 Rocket 3.4 23:01:04 10° N 23:05:24 70° E 23:09:43 10° SSE
Cosmos 1809 Rocket 4.4 23:00:07 10° N 23:06:13 71° E 23:12:16 10° SSE
NOSS 3-1 (A) 4.2 22:59:21 10° NW 23:07:07 88° ENE 23:16:04 10° SSE
GPS 2-04 Rocket1 3.8 23:05:43 10° WSW 23:09:34 39° S 23:12:58 13° ESE
CZ-2C R/B 2.9 23:06:01 10° NNE 23:10:56 42° E 23:15:49 10° S
Cosmos 2360 4.2 23:05:37 10° NNW 23:11:22 76° ENE 23:17:04 10° SSE
Meteor 1-26 Rocket 4.3 23:10:40 10° S 23:16:35 81° E 23:22:39 10° NNE
deb Chang Zheng 4 3.9 23:13:26 10° SE 23:17:27 40° ENE 23:21:30 10° N
Cosmos 1898 Rocket 3.7 23:12:36 10° NNW 23:17:51 75° WSW 23:23:00 10° SSE
Cosmos 2084 3.9 23:14:57 10° NW 23:19:17 67° WSW 23:23:46 10° SSE
Cosmos 1666 3.3 23:16:19 10° NNE 23:19:42 32° ENE 23:23:02 10° SE
MOS 1-B 4.3 23:16:33 10° SSE 23:22:18 74° ENE 23:28:04 10° N
CZ-4C R/B 3.3 23:21:17 10° NNW 23:28:15 46° NE 23:36:16 10° ESE
Cosmos 2208 Rocket 4.3 23:27:14 10° S 23:32:21 46° ESE 23:35:28 22° NE
Cosmos 1812 2.5 23:29:46 10° S 23:33:36 79° E 23:36:51 14° N
H-2A R/B 2.0 23:29:51 10° SSE 23:35:04 86° WSW 23:40:11 10° NNW
SJ-11-01 4.3 23:31:10 10° SSE 23:35:48 57° ENE 23:40:27 10° N
COSMO-SKYMED 1 2.4 23:34:00 11° NNE 23:38:15 79° ESE 23:42:35 10° S
USA 276 3.4 23:36:37 10° WNW 23:39:34 39° SW 23:41:30 18° SSE
Cosmos 921 Rocket 3.5 23:44:03 10° S 23:47:24 37° ESE 23:47:24 37° ESE
Cosmos 1633 Rocket 2.9 23:44:47 10° N 23:49:09 72° E 23:53:32 10° SSE
Meteor 1-14 Rocket 4.2 23:43:32 10° N 23:49:23 84° E 23:55:20 10° S
Cosmos 2142 Rocket 4.5 23:43:24 10° S 23:49:32 83° W 23:55:47 10° N
Cosmos 2322 Rocket 3.9 23:45:29 10° N 23:47:27 16° NNE 23:47:27 16° NNE
Cosmos 1697 Rocket 3.8 23:47:03 10° NW 23:52:22 45° WSW 23:57:40 10° S
Cosmos 841 Rocket 4.4 23:47:39 10° SW 23:52:37 47° WNW 23:57:37 10° N
